Location: Abundant Grace Fellowship
(35.0349°N, 90.0924°W)
Time: 21:39:09
(UTC+00:00)

Cosmos 1743 Rocket - Pass Details

Date: 18 January 2026
Orbit: 597 x 626 km, 82.6° (Epoch: 10 February)

Event Time Altitude Azimuth Distance (km) Brightness Sun altitude
Rises 11:11:11 0° 180° (S) 2,894 7.1 -23.5°
Reaches altitude 10° 11:13:25 10° 179° (S) 1,990 6.3 -23.0°
Maximum altitude 11:17:48 72° 95° (E) 656 3.7 -22.1°
Drops below altitude 10° 11:22:13 10° 11° (N) 1,994 6.2 -21.2°
Sets 11:24:27 0° 9° (N) 2,900 7.0 -20.8°
